Location: WHS+Essen
(51.3947°N, 6.9794°E)
Time: 09:44:34
(UTC+02:00)

ISS - Pass Details

Date: 22 March 2019
Orbit: 408 x 410 km, 51.6° (Epoch: 25 April)

Event Time Altitude Azimuth Distance (km) Brightness Sun altitude
Rises 21:06:40 0° 235° (SW) 2,329 0.3 -21.4°
Reaches altitude 10° 21:08:48 10° 229° (SW) 1,470 -0.8 -21.7°
Enters shadow 21:09:43 17° 223° (SW) 1,120 -1.5 -21.8°
